Wind_Speed
6 5 5 5 5 5 6 7 8 8 9 10 10 10 10 9 9 8 6 5 5 4 2 2 3 3 4 4 4 4 4 3 1 1 2 1 2 3 2 1 1 2 2 2 2 2 1 1 1 1 1 3 5 7 7 7 6 6 7 7 8 8 8 7 8 9 11 11 12 12 13 14 15 16 16 17 17 17 17 17 17 17 17 17 18 19 19 18
6 6 6 6 6 6 6 7 8 9 10 11 10 10 10 9 9 8 6 5 5 4 2 3 3 4 4 4 4 4 3 2 2 2 2 2 3 3 2 2 2 3 2 2 2 2 1 1 1 1 1 3 5 6 7 7 6 6 7 7 7 7 7 8 9 10 12 13 13 13 14 15 16 16 17 18 18 18 18 18 18 18 17 18 19 20 19 18
7 6 6 6 6 6 6 7 8 9 11 12 12 10 9 8 8 7 6 5 4 3 3 4 5 4 4 4 4 3 2 1 3 4 3 3 3 3 3 3 3 3 3 3 2 2 2 2 2 2 2 4 5 6 7 7 6 6 7 7 6 7 8 9 10 11 12 13 14 15 16 17 17 18 18 18 19 19 18 17 18 18 18 19 20 20 19 18
8 7 6 6 6 6 7 7 8 9 11 12 11 9 7 7 7 6 5 5 4 4 5 6 6 5 5 5 4 3 1 2 4 4 4 4 3 3 3 3 4 4 4 4 3 3 3 3 3 3 3 4 5 6 6 6 6 6 6 6 7 8 9 10 11 12 12 13 15 16 17 18 19 19 19 19 19 18 17 17 19 18 19 20 20 20 19 18
10 8 6 6 6 6 6 6 7 9 11 11 9 7 6 5 5 5 4 5 5 6 7 7 6 6 6 5 4 3 1 3 4 4 4 3 3 3 3 3 3 4 4 4 4 4 4 4 4 4 4 4 5 6 6 6 6 7 6 6 7 8 10 11 11 12 13 14 15 16 18 18 19 20 20 19 19 17 16 19 20 19 20 20 20 20 19 19
11 9 7 7 6 6 5 5 7 9 11 9 7 5 4 3 3 4 4 5 6 7 7 6 6 6 5 5 4 3 2 3 4 4 4 3 2 3 4 3 3 4 4 5 5 6 6 5 5 4 4 4 5 5 6 6 6 7 7 6 8 9 10 11 12 13 14 15 15 16 17 18 20 20 20 21 19 17 19 20 21 21 21 21 21 20 19 20
11 10 8 7 6 5 5 6 7 10 11 8 5 4 3 2 3 5 5 6 7 7 6 5 5 5 5 4 3 3 4 5 5 5 3 2 3 3 4 4 4 4 5 5 6 7 7 6 5 4 4 4 4 5 5 6 6 7 7 7 9 10 11 12 13 13 14 15 16 17 18 19 20 21 21 21 19 20 21 21 22 23 23 22 21 20 20 20
11 11 9 7 6 5 5 6 7 9 9 6 4 3 2 3 4 5 6 7 7 6 5 4 4 4 4 4 4 4 5 6 5 4 3 3 3 3 4 4 4 5 6 6 7 8 8 7 6 4 4 4 4 4 5 6 6 7 8 8 10 11 12 12 13 14 15 16 18 18 19 20 22 22 22 20 20 23 23 22 22 23 23 22 21 21 21 21
11 11 9 6 4 4 5 5 7 9 8 5 3 2 2 3 3 5 7 7 6 6 4 4 4 4 4 5 5 4 4 5 4 4 3 3 3 3 4 4 5 6 7 8 8 9 9 8 6 5 5 4 4 5 6 6 7 7 8 10 11 12 12 13 13 15 16 17 19 20 22 23 23 25 22 18 20 22 22 21 21 22 23 22 22 22 22 22
11 11 8 4 3 4 4 5 7 7 6 4 3 1 3 3 2 3 6 6 6 5 4 4 5 5 4 4 4 3 4 5 5 4 3 3 3 3 4 5 5 6 7 8 9 9 9 8 6 5 5 5 6 6 7 7 8 8 9 10 12 12 13 13 14 16 17 18 20 22 24 25 26 26 21 18 21 20 19 20 19 20 21 22 23 23 23 23
10 9 6 3 3 4 4 5 6 6 5 4 2 2 4 4 3 3 4 5 5 5 5 5 5 4 3 4 4 4 5 5 5 4 3 3 3 4 5 6 6 7 8 9 9 9 9 8 6 6 5 6 6 7 8 8 9 9 10 11 12 13 14 14 15 16 17 19 21 23 25 27 25 24 21 21 21 20 21 20 18 20 21 23 24 23 24 23
6 5 3 3 3 4 5 5 5 5 4 3 1 3 4 4 3 3 3 4 4 5 5 5 4 4 4 4 4 5 5 5 5 3 3 3 4 5 6 6 7 8 9 9 9 8 8 7 6 6 6 7 7 8 8 8 9 10 11 12 14 15 14 15 15 17 18 20 22 24 26 27 23 22 23 22 21 20 20 19 19 21 22 24 25 25 24 23
3 3 3 4 3 4 5 5 4 3 3 1 2 3 4 3 2 2 3 3 4 4 5 5 4 4 5 5 6 6 6 5 5 3 3 4 5 6 7 7 8 9 9 10 9 8 7 6 5 6 7 8 9 9 9 10 11 12 13 14 15 16 15 15 17 18 20 21 22 23 26 27 22 22 25 23 22 21 21 21 22 22 22 24 25 26 25 24
3 3 3 4 4 4 5 5 3 2 1 1 2 3 3 2 2 2 3 4 4 4 5 4 4 5 5 6 7 7 6 5 5 4 4 5 6 7 7 9 9 9 10 10 9 7 6 5 5 6 7 8 9 10 10 12 12 13 14 15 15 16 17 18 19 20 20 21 23 22 26 28 24 23 26 25 25 25 24 23 23 22 23 23 25 26 25 25
3 3 3 4 4 5 5 4 2 0 0 0 1 2 2 1 2 3 3 4 4 5 5 5 5 6 6 7 7 7 6 6 5 5 6 6 7 7 8 10 9 9 9 9 8 6 6 5 5 6 7 8 9 11 11 12 13 14 14 15 16 17 19 20 20 21 20 21 24 23 26 30 26 23 25 26 28 28 27 24 23 23 23 23 25 25 25 25
3 3 4 4 4 4 3 3 1 1 1 0 1 2 1 1 2 3 4 5 5 5 5 5 6 6 7 7 7 7 6 6 6 6 7 7 8 8 9 10 10 9 8 8 7 6 6 6 6 7 7 8 9 10 12 13 14 14 14 16 18 19 21 21 21 21 22 23 25 25 28 32 29 25 26 28 29 29 28 24 23 24 24 24 24 24 24 23
1 1 3 3 2 2 2 2 2 2 1 1 2 3 2 2 3 4 5 6 6 6 5 5 6 6 7 7 7 7 7 7 7 7 7 8 9 10 10 11 11 9 7 7 7 6 6 6 7 7 8 9 10 10 11 13 13 13 15 17 19 20 22 22 21 22 23 24 26 29 32 32 30 29 28 27 27 29 28 24 23 25 25 24 23 22 21 20
2 1 2 1 1 1 2 3 3 2 2 2 2 3 4 4 5 5 6 7 6 6 5 5 6 6 6 7 7 7 7 8 8 7 7 8 9 10 11 12 11 9 7 6 6 6 7 7 7 9 9 10 10 10 11 13 14 15 16 19 20 21 22 22 21 22 24 26 27 30 33 34 32 30 28 26 26 29 27 24 25 24 23 23 21 19 18 19
3 3 2 2 1 2 2 2 2 2 2 3 3 4 5 5 5 6 6 6 6 6 5 4 5 6 7 7 8 8 8 8 7 8 8 9 10 11 12 12 11 10 8 7 7 7 8 9 9 10 11 11 11 12 13 14 15 16 17 19 20 21 23 22 20 23 25 27 28 30 34 36 34 31 28 25 25 28 28 25 24 23 21 20 17 16 17 19
3 3 2 2 1 2 1 1 2 3 4 4 5 5 5 5 5 6 6 6 6 6 6 6 7 8 8 8 9 9 9 8 8 8 9 10 11 12 12 12 12 11 10 9 9 9 9 10 11 11 11 12 12 13 13 14 15 16 17 18 20 22 23 21 21 24 25 28 30 32 35 36 34 32 28 24 24 26 26 24 23 21 19 17 14 15 17 18
3 2 2 2 1 2 2 2 2 3 5 6 6 6 6 6 6 6 7 7 7 7 8 9 9 8 9 9 9 9 9 9 9 9 10 11 11 12 12 12 12 12 11 11 11 11 10 12 12 12 12 13 13 14 14 14 15 16 17 18 20 22 23 22 23 24 25 30 32 34 38 37 33 32 28 24 22 21 22 22 22 20 16 14 13 14 16 17
3 2 2 2 1 2 2 3 4 5 6 7 7 8 8 7 6 7 7 7 8 8 8 9 9 9 9 9 9 9 9 9 9 10 11 12 12 13 13 12 12 12 12 12 12 12 12 13 12 12 13 13 14 15 15 15 16 16 17 18 20 21 23 22 22 24 26 32 35 36 40 39 34 30 23 19 18 18 21 22 20 17 13 12 13 14 16 17
4 3 2 1 1 2 2 3 4 5 6 8 8 9 8 8 8 7 8 8 9 9 9 9 9 9 9 9 9 8 9 10 10 11 12 12 13 13 14 13 13 14 13 13 13 13 13 13 12 13 14 14 15 16 15 16 16 17 18 19 20 21 22 22 24 26 27 31 35 37 43 42 32 22 18 18 20 20 21 21 17 14 13 13 14 14 16 17
5 4 2 2 2 1 0 1 3 5 7 8 9 9 9 9 9 9 10 11 11 10 10 10 10 10 9 9 9 9 10 11 11 12 13 13 14 14 14 14 14 14 14 14 14 14 14 14 15 15 15 16 16 16 17 17 17 19 20 20 21 20 21 24 27 28 29 30 31 35 41 36 21 17 22 23 21 21 20 19 16 14 14 15 15 16 17 18
5 4 3 3 3 2 1 2 4 6 8 10 10 10 11 11 11 12 12 13 11 10 9 10 10 10 10 10 10 10 11 12 13 13 14 14 14 14 15 15 15 15 14 14 14 15 15 16 16 16 15 16 17 18 19 19 20 21 21 21 22 21 22 25 27 29 30 26 25 28 25 19 19 22 25 23 22 22 20 17 15 13 16 17 15 16 19 19
5 4 4 4 3 3 3 4 6 8 9 10 11 11 11 12 12 12 13 13 10 8 8 8 8 8 8 8 8 9 10 11 11 12 13 14 14 15 15 15 15 15 15 16 16 16 16 15 15 16 16 17 18 19 19 20 21 22 22 22 22 23 24 26 27 27 26 24 27 28 15 17 32 31 22 23 25 21 15 12 11 13 16 17 15 18 21 21
6 5 4 5 4 4 4 5 7 8 10 11 11 12 12 12 12 12 12 9 6 6 7 7 7 8 8 8 8 10 10 10 11 12 12 12 13 14 14 15 16 16 16 16 16 16 16 16 17 18 19 20 20 20 20 20 21 22 22 22 22 24 25 27 27 27 30 31 31 29 18 19 29 26 24 28 22 13 11 10 10 13 15 16 17 21 23 23
6 5 6 6 5 5 4 6 7 9 10 11 11 11 12 12 12 12 9 4 4 7 7 7 7 8 9 9 10 11 11 11 12 12 12 12 13 14 14 15 16 16 17 17 18 18 18 19 20 20 21 22 22 21 21 21 21 22 22 22 24 25 26 28 28 29 31 27 24 24 16 12 15 20 27 28 17 13 15 13 13 16 15 16 19 24 25 25
7 7 7 7 6 5 5 6 7 9 10 11 11 11 11 12 11 10 5 1 4 7 7 7 7 7 8 9 9 10 11 11 11 11 13 14 14 15 15 16 16 17 18 19 20 20 19 20 20 21 22 22 21 21 21 21 21 22 22 23 24 25 27 28 28 29 23 15 17 20 11 7 11 22 25 21 17 19 20 17 15 15 14 16 21 25 27 28
8 8 8 9 8 6 6 6 8 9 11 11 11 11 11 11 9 6 2 2 6 7 6 6 8 9 9 9 10 10 11 11 11 12 13 14 14 15 15 17 18 18 18 19 20 19 19 19 19 20 21 20 21 21 21 22 22 22 22 23 25 25 27 27 24 22 12 7 10 10 10 7 6 20 24 19 19 22 20 15 11 10 13 16 20 24 28 29
9 9 9 9 8 7 7 8 9 10 11 11 11 11 10 10 8 3 1 4 7 5 4 7 10 11 10 9 10 10 11 12 12 13 13 14 14 15 16 17 17 17 18 18 17 17 17 18 19 21 21 20 21 20 21 21 21 21 21 21 22 21 20 18 14 9 4 4 4 4 7 7 6 17 24 18 18 19 15 10 8 10 11 13 16 19 23 26
10 10 10 10 9 8 8 9 10 10 11 11 11 11 11 9 6 3 3 7 6 3 6 11 13 13 11 11 11 11 12 12 13 13 13 14 14 15 16 15 16 16 15 16 17 19 20 20 19 19 18 18 18 18 18 18 18 17 17 17 15 11 10 7 4 3 4 6 4 4 4 7 14 20 17 16 20 16 8 8 9 9 10 14 17 18 20 23
10 10 10 10 9 9 9 10 10 11 11 12 11 11 10 7 3 4 6 7 6 8 11 13 14 14 13 12 12 12 13 13 12 12 12 13 13 14 14 15 16 15 14 17 19 19 17 15 14 14 14 13 13 14 14 14 15 16 17 17 10 3 4 4 4 4 6 6 6 7 5 9 15 12 14 21 21 9 5 9 8 8 14 19 20 19 21 22
10 10 10 9 9 9 9 10 10 11 12 12 11 11 9 6 4 7 8 8 8 11 13 14 15 15 14 13 12 12 12 11 10 10 11 13 13 14 15 16 16 15 15 16 15 12 10 10 11 12 11 10 11 14 14 16 19 20 19 18 13 8 4 5 4 4 7 11 10 9 6 6 7 9 20 23 10 0 8 14 8 11 21 23 21 20 22 24
9 9 8 8 8 9 10 11 12 13 13 12 12 11 9 6 6 8 9 9 11 12 14 15 16 15 14 12 9 9 9 9 10 12 12 13 14 16 15 14 13 13 13 12 10 10 9 9 10 10 12 15 17 18 18 19 17 15 14 13 13 12 10 10 12 12 12 13 10 9 9 11 15 19 19 10 3 5 16 16 8 15 28 26 22 22 23 26
9 8 7 7 8 9 11 12 13 13 13 12 12 11 10 8 8 10 11 11 12 14 15 15 14 13 11 8 7 8 10 11 12 13 13 14 15 14 12 10 11 12 12 12 12 10 8 9 11 14 17 20 20 18 18 17 14 13 14 13 14 16 15 14 15 13 9 6 8 9 12 17 19 17 8 0 5 16 17 11 12 23 31 28 25 24 25 29
8 7 7 8 9 11 12 13 13 13 12 11 11 11 10 10 10 10 11 12 13 14 15 15 13 11 9 8 8 10 12 12 13 14 15 15 14 11 9 10 12 13 13 13 12 11 13 16 18 18 18 17 17 17 17 17 17 18 18 16 16 15 13 10 7 6 3 3 7 11 14 17 14 12 10 9 13 22 17 14 24 32 32 29 27 26 28 33
8 8 9 10 11 12 12 12 11 11 11 10 10 10 10 10 10 11 12 13 14 14 15 14 11 10 9 10 11 13 14 14 14 14 15 14 11 9 11 14 14 13 12 12 12 14 16 17 16 15 15 15 16 17 18 18 18 18 17 17 15 12 10 7 4 3 3 2 6 9 12 15 17 16 12 10 20 27 19 22 35 36 32 32 30 29 33 37
9 10 11 11 12 11 11 10 10 9 9 9 9 8 9 10 11 12 13 13 14 14 14 12 10 10 11 12 15 15 15 15 15 15 14 11 10 12 15 14 11 10 12 14 14 15 16 13 12 14 17 18 19 19 19 19 18 17 16 17 17 14 13 11 7 5 3 3 6 7 4 9 18 16 10 16 28 26 21 33 41 37 35 34 32 34 38 39
11 11 11 11 11 10 9 9 9 9 9 8 8 8 9 11 11 11 12 13 13 13 12 12 12 13 14 15 15 15 15 15 15 14 13 12 13 13 12 10 11 13 15 15 15 16 17 14 13 18 22 21 21 20 20 22 21 19 18 18 18 16 14 13 13 13 11 4 2 4 4 10 19 20 21 27 26 21 29 42 42 38 37 34 34 38 41 40
11 11 11 10 10 9 9 9 9 9 8 8 8 9 10 11 11 11 12 12 12 12 12 13 13 13 14 14 14 15 15 15 15 15 13 13 12 10 10 12 15 16 16 17 17 16 16 15 19 24 25 23 22 22 23 25 22 19 18 17 16 16 14 10 9 13 14 10 8 7 7 19 30 29 26 23 20 27 39 42 39 38 35 33 36 39 40 41
12 11 10 10 10 9 9 9 9 8 8 8 9 10 11 11 12 12 12 12 12 12 12 12 12 12 12 13 13 14 15 15 16 14 11 11 12 12 13 15 16 16 17 18 17 16 16 17 21 25 25 23 23 22 21 18 15 14 14 15 14 16 16 11 8 11 11 12 17 13 8 24 36 28 18 20 27 36 39 37 37 36 32 34 39 41 41 42
11 10 10 10 10 9 9 9 9 9 10 10 10 11 11 12 12 12 11 11 11 11 11 11 12 12 12 13 13 14 15 15 13 11 12 13 14 14 14 15 17 17 18 17 16 17 16 15 19 25 27 25 22 18 14 11 12 14 16 19 18 18 20 18 18 22 16 14 18 12 6 15 24 21 21 28 34 35 34 34 33 31 33 38 42 43 44 44
10 10 10 9 9 9 9 9 9 9 9 10 10 11 12 11 11 11 11 11 12 12 12 11 11 12 12 13 13 14 14 12 11 13 14 14 14 15 15 17 17 16 17 18 18 18 15 14 18 21 20 18 15 10 9 13 19 22 23 24 23 23 24 22 22 23 18 17 17 10 10 19 23 27 31 31 31 33 33 32 30 31 37 42 45 47 47 48
10 10 9 8 9 8 8 8 9 9 9 10 10 10 10 10 11 11 11 11 11 11 11 11 11 11 12 12 12 13 13 13 13 14 14 14 16 17 16 16 17 18 19 19 19 19 17 17 18 15 8 8 11 11 15 22 25 27 27 26 27 28 26 23 21 18 15 16 16 16 25 37 37 33 32 29 30 35 35 32 32 35 40 45 48 50 51 53
9 8 8 9 8 7 7 9 10 10 10 11 11 10 10 11 11 11 11 10 10 10 11 11 11 11 11 12 13 14 14 13 14 14 15 17 17 17 17 18 19 19 19 19 20 19 18 19 19 17 17 18 21 23 26 28 29 29 29 27 26 26 25 23 21 21 22 23 24 27 32 41 41 36 32 31 33 34 34 36 38 41 45 49 51 52 54 56
8 8 8 9 7 6 8 10 10 10 11 12 12 11 12 12 11 11 11 11 10 11 12 11 11 12 12 13 14 15 14 14 15 17 17 17 17 17 18 19 19 19 18 19 18 16 18 21 20 21 24 25 26 27 27 28 29 29 27 24 22 21 23 23 22 23 24 22 25 28 29 34 40 38 32 32 34 34 37 41 45 48 50 51 53 55 56 57
8 8 9 9 8 9 10 10 10 11 12 12 12 12 12 12 12 12 12 12 12 12 13 12 12 13 13 14 15 15 16 16 17 18 17 18 18 19 19 19 19 18 18 17 18 17 19 22 22 23 25 25 24 24 24 24 24 23 23 22 21 19 18 19 18 16 17 19 24 30 31 33 37 36 31 33 34 37 42 47 50 51 51 53 55 57 58 59
9 9 9 9 10 11 11 11 12 12 13 13 13 12 12 12 13 13 13 13 13 13 13 12 13 13 14 15 16 16 16 17 18 18 19 19 19 19 20 20 18 18 19 19 21 20 18 20 22 23 25 26 23 21 22 21 20 23 23 18 14 12 11 12 13 13 16 22 28 31 33 35 35 33 35 36 36 41 48 51 52 52 53 55 57 58 59 60
10 10 10 10 11 11 12 12 13 13 13 14 13 13 13 13 14 13 13 14 13 12 13 13 14 15 15 15 16 16 17 17 18 18 19 19 19 19 20 19 18 20 21 21 22 20 17 20 21 21 26 27 22 19 21 22 25 27 19 8 7 10 10 11 14 18 23 27 30 31 34 38 37 35 36 37 41 49 53 52 52 54 55 57 59 59 59 59
12 12 12 12 12 12 12 13 13 13 13 13 13 14 14 14 14 14 13 14 13 13 14 14 15 15 15 15 16 16 16 16 16 17 18 18 19 19 19 20 20 21 21 20 20 18 17 19 20 20 24 26 22 21 23 25 27 19 7 6 12 13 13 15 17 21 26 31 33 33 35 39 40 37 38 43 49 53 53 53 55 56 58 60 59 58 58 57
13 13 13 12 12 12 12 13 13 13 13 13 14 14 14 14 14 14 14 14 14 14 15 15 15 15 15 15 15 15 15 15 15 16 17 18 19 19 18 19 18 18 17 16 16 17 16 17 19 18 19 23 24 24 26 26 18 5 3 12 17 14 16 20 20 22 27 32 35 36 37 40 37 36 43 52 54 54 55 56 57 59 60 59 57 56 55 53
Wind_Direction
236 244 253 263 274 294 315 324 328 330 328 324 319 312 307 306 305 300 286 266 247 233 223 210 198 170 145 135 125 115 106 92 55 20 32 24 298 284 285 308 330 316 329 339 330 344 344 321 281 252 251 248 252 257 258 259 263 268 268 272 278 283 295 307 309 306 307 307 303 300 297 295 293 289 286 282 281 279 277 277 277 274 273 272 271 274 276 279
235 244 255 265 276 289 300 308 317 323 323 319 314 307 301 297 293 286 270 247 233 224 218 203 186 168 152 140 129 113 92 65 358 332 328 304 284 283 293 303 305 309 318 328 328 325 312 287 257 255 277 264 259 259 258 255 256 263 269 276 285 294 306 312 310 308 305 303 302 300 297 295 293 290 287 284 282 278 276 276 275 272 270 268 268 272 275 280
232 237 249 259 269 278 288 297 308 319 321 317 311 304 295 288 282 272 256 236 221 210 196 183 175 169 157 149 140 119 88 17 312 301 294 285 278 278 291 297 302 311 312 307 308 301 278 265 261 263 287 278 264 259 252 250 256 263 273 285 296 305 308 308 307 306 304 303 302 300 300 298 296 293 289 286 282 278 276 275 273 269 265 265 268 272 276 281
229 232 242 252 260 268 280 289 302 316 320 315 307 297 287 281 271 257 242 226 203 180 171 170 170 168 162 158 151 130 98 285 277 282 278 273 277 279 283 290 299 304 303 300 290 268 255 255 263 266 277 274 263 260 250 249 262 268 278 295 306 310 306 305 306 305 304 303 302 302 302 302 300 296 293 287 283 281 276 272 271 268 263 265 270 273 277 283
228 226 234 242 253 263 275 292 308 321 323 315 304 293 284 279 264 245 230 214 187 169 166 167 169 170 170 168 159 142 148 253 251 262 269 271 282 282 276 278 287 293 295 296 284 262 249 247 250 250 253 262 264 261 255 257 268 274 287 301 304 307 304 304 305 304 303 301 301 302 302 302 302 300 297 292 292 291 280 275 275 269 264 266 271 275 278 282
226 220 224 233 247 258 275 303 316 325 327 316 305 297 282 270 249 231 217 201 181 169 166 169 173 177 181 179 173 167 190 240 248 254 268 281 280 273 275 276 279 284 288 289 281 265 255 247 241 238 239 252 259 259 260 265 270 278 292 299 299 303 302 301 303 302 300 301 302 301 301 301 303 304 301 299 301 295 285 281 277 269 265 266 272 275 276 280
221 213 217 228 243 261 283 304 312 321 326 318 310 304 275 253 232 218 208 193 180 172 169 174 181 187 196 203 206 213 232 259 264 256 268 284 275 276 281 285 283 279 278 278 273 264 260 255 243 237 244 249 252 259 265 269 276 284 292 298 299 301 302 300 301 301 301 305 305 304 304 304 307 308 305 305 302 294 289 285 277 271 265 266 271 273 274 279
212 206 212 228 247 273 292 303 307 316 323 321 317 304 265 247 228 218 210 192 180 175 172 178 188 202 220 235 243 249 251 261 266 256 264 273 271 278 282 285 281 273 271 271 267 261 260 259 248 243 256 259 258 265 273 275 280 287 291 297 299 299 301 301 302 304 306 309 308 309 310 310 310 307 308 309 298 289 289 287 280 273 266 266 270 272 273 278
197 199 209 228 255 287 298 301 306 313 319 320 319 289 240 222 212 211 206 192 178 179 185 193 207 221 233 247 253 256 253 256 259 255 258 263 266 272 274 274 267 265 267 267 265 260 258 258 250 245 255 262 266 271 274 277 281 288 291 294 297 297 299 302 306 308 309 310 311 313 313 312 309 306 310 312 294 285 285 286 282 275 269 268 269 270 271 276
186 195 206 228 271 293 297 300 307 313 318 314 305 246 197 180 162 176 189 185 180 189 206 211 216 225 232 247 251 248 251 255 255 255 259 261 267 268 263 262 259 259 261 262 260 256 254 253 250 247 253 263 270 273 275 278 281 286 288 292 296 297 301 304 308 309 309 311 311 314 313 309 305 306 313 312 298 289 286 287 285 280 275 270 269 269 270 274
182 192 204 245 285 290 295 301 306 313 320 312 283 199 173 161 146 145 169 179 186 199 211 217 226 232 242 255 250 247 251 252 256 256 255 263 270 266 259 258 258 256 256 255 253 249 248 249 249 251 259 269 272 273 278 281 284 286 289 295 298 301 304 306 309 310 310 311 311 312 308 302 304 310 314 311 304 295 288 289 290 288 282 273 270 268 269 273
168 182 216 267 284 294 300 302 305 317 329 325 220 164 158 155 157 161 172 181 194 206 217 233 249 256 262 263 253 253 253 252 259 257 259 271 271 266 262 260 262 259 255 251 248 244 245 247 250 258 264 272 275 278 281 284 288 292 296 299 302 305 305 307 310 309 310 311 310 312 306 301 309 315 313 313 310 300 291 289 290 292 286 276 270 267 270 272
162 198 249 267 277 303 310 305 306 321 338 360 129 142 150 158 170 191 199 204 213 223 239 249 264 273 271 271 264 258 255 256 260 263 272 275 270 267 263 262 262 259 254 249 245 242 246 250 256 264 269 272 276 281 284 288 293 298 301 302 304 306 306 309 311 309 310 309 309 311 304 304 316 316 313 315 310 301 293 288 288 290 287 279 271 267 269 272
199 228 256 266 278 306 314 307 305 320 360 73 134 147 157 168 200 228 230 231 235 243 257 268 286 290 279 275 272 263 257 257 261 269 277 275 270 267 264 263 258 254 252 247 243 244 251 257 263 272 272 272 277 281 285 289 294 300 302 304 306 307 308 311 310 308 309 307 306 306 299 304 318 316 312 312 305 299 295 289 286 287 289 282 273 269 270 272
237 247 266 276 286 302 309 307 302 298 92 132 177 184 185 214 248 257 259 264 271 276 287 304 308 297 281 273 269 266 261 259 264 270 274 273 269 268 267 264 258 253 249 248 249 251 258 263 270 275 271 273 278 281 287 291 294 299 300 303 306 306 307 310 309 308 307 304 304 301 295 303 316 317 312 306 301 297 293 290 287 288 289 283 275 270 269 272
260 258 267 278 286 291 300 314 325 116 124 279 280 272 264 267 275 287 293 293 298 303 308 315 312 298 283 272 264 261 261 261 263 267 272 273 272 271 268 263 260 252 246 250 254 257 267 270 274 276 272 276 280 282 289 291 294 299 300 302 305 306 307 309 310 308 305 302 302 299 295 304 314 316 310 303 299 294 290 288 286 287 287 281 276 272 271 273
329 258 272 287 287 286 325 8 21 37 15 321 307 306 305 305 310 315 310 305 306 309 311 310 304 288 274 266 260 255 257 258 257 262 271 276 277 274 267 263 261 254 248 250 253 260 271 274 279 279 273 275 283 286 287 288 295 301 302 302 303 305 305 307 309 305 301 300 302 300 297 305 313 313 311 306 299 291 286 285 283 284 284 281 278 274 273 274
35 13 342 346 345 348 7 13 7 3 348 329 327 329 326 320 320 320 315 309 305 304 304 302 295 281 266 260 259 254 257 259 256 263 274 279 280 277 271 266 263 261 256 256 264 271 274 280 282 277 275 277 284 287 282 286 296 300 300 300 301 303 303 307 308 301 298 300 302 301 300 306 312 313 315 310 297 287 284 284 284 285 282 280 277 274 273 277
27 22 28 29 25 21 12 1 348 338 336 348 358 351 338 329 323 320 317 314 306 297 292 291 290 282 265 261 268 262 261 265 263 270 279 282 282 279 276 272 270 271 269 272 281 281 279 279 275 275 280 281 283 286 285 289 296 298 298 297 298 301 305 310 305 298 298 299 302 303 303 307 312 316 319 309 291 284 287 291 290 286 280 276 274 272 275 281
12 15 25 22 29 41 31 9 341 335 343 352 358 354 346 341 335 329 325 321 310 294 283 282 288 283 264 266 279 271 267 269 268 277 283 284 284 282 281 278 278 282 284 286 285 282 281 277 276 280 284 282 282 285 287 290 294 296 296 297 298 301 307 312 303 299 301 299 304 307 305 307 312 318 319 305 289 287 292 295 293 285 278 274 273 277 281 285
1 360 353 349 29 54 48 27 10 2 360 359 359 355 349 346 345 338 329 323 315 299 287 284 288 285 267 271 281 274 273 273 273 282 284 283 284 286 286 285 288 291 292 292 289 285 282 280 283 288 288 285 283 284 287 290 292 294 295 297 301 304 308 310 304 302 304 302 306 309 305 307 314 318 315 302 294 296 297 298 296 287 277 273 276 283 287 292
360 355 345 340 16 43 34 30 33 28 18 13 6 357 351 347 344 336 325 320 317 308 298 290 289 285 271 270 277 276 277 279 280 283 284 284 287 290 291 290 293 295 295 294 292 289 287 287 290 291 290 287 284 285 289 289 291 293 295 298 303 308 310 309 307 306 307 305 308 310 306 308 316 318 313 308 308 307 304 305 299 285 273 270 281 295 300 305
1 355 360 351 351 19 30 42 40 25 18 12 5 357 351 344 336 331 324 317 314 309 300 291 286 283 277 272 274 277 279 281 282 282 283 285 289 293 293 292 294 295 295 295 293 290 289 290 293 293 291 288 287 287 287 288 290 291 293 297 303 311 312 309 308 307 307 306 308 310 306 308 318 321 317 321 322 315 308 308 300 280 270 271 285 306 314 315
358 351 351 343 339 348 14 38 17 360 355 352 354 354 347 340 332 325 320 315 311 305 296 287 281 279 278 276 276 279 281 281 282 282 283 285 289 292 292 293 293 293 294 294 292 290 288 289 291 292 291 290 289 287 286 287 288 290 292 295 301 309 310 309 309 308 307 305 306 310 310 311 320 327 322 321 322 317 308 304 297 277 270 276 289 312 321 320
353 343 330 325 334 338 312 313 327 330 333 336 342 345 342 337 330 324 322 316 309 302 292 284 281 280 278 280 280 281 285 285 284 283 284 286 288 290 292 293 293 294 295 293 293 291 289 289 290 289 290 293 293 290 287 287 288 291 293 295 299 303 307 310 311 309 308 305 306 313 317 308 305 319 322 318 324 322 308 301 294 276 273 279 292 315 324 323
338 328 312 311 319 328 319 317 323 326 329 333 335 338 338 334 328 326 323 313 303 302 301 288 280 282 285 287 288 291 293 291 288 287 287 288 290 292 292 291 292 293 293 294 293 290 290 290 289 289 290 293 293 292 290 289 289 292 295 297 296 298 304 309 310 309 305 301 303 308 303 282 297 314 324 320 329 328 313 308 295 280 278 280 295 317 325 324
320 318 306 304 308 317 324 328 331 333 335 335 334 334 333 329 327 327 325 316 304 316 319 305 284 278 283 290 295 300 299 296 296 295 291 291 296 298 296 293 293 291 291 293 290 289 293 292 292 292 291 291 293 294 292 290 289 291 295 296 293 296 302 306 308 306 300 298 300 299 285 272 292 314 326 324 335 342 325 322 308 298 289 285 302 319 324 324
310 312 306 303 304 308 321 328 332 336 337 335 333 332 330 328 327 326 329 331 318 323 329 327 310 291 287 290 295 300 300 298 296 294 293 294 296 298 297 296 293 290 291 289 286 291 294 293 293 292 291 291 293 293 290 289 289 291 295 295 294 297 299 302 305 302 299 298 297 293 283 262 278 308 323 325 337 347 337 329 315 308 301 301 316 323 325 327
311 313 307 302 300 304 316 324 329 334 336 335 333 332 330 328 327 326 328 297 312 323 331 336 331 318 306 301 302 304 305 303 296 293 294 294 294 296 296 294 293 292 291 289 289 293 294 293 294 291 291 292 293 292 288 288 290 291 295 296 296 298 298 301 302 298 296 290 288 287 267 235 281 305 320 330 335 337 335 325 314 313 317 324 329 329 330 331
312 312 306 301 296 300 311 320 324 328 332 334 332 331 332 329 328 334 330 284 316 323 329 340 340 332 318 306 303 301 303 304 299 297 296 294 295 296 295 295 294 293 292 292 292 294 294 294 293 291 292 293 292 291 288 288 290 293 296 296 298 299 299 299 295 293 295 280 281 271 235 214 284 310 320 333 334 331 328 322 323 330 334 335 332 330 332 331
310 308 303 298 292 295 307 313 316 321 327 331 331 331 332 329 326 328 260 311 324 324 336 346 340 333 322 307 302 302 304 303 300 300 298 297 297 296 297 297 297 298 298 297 296 297 298 296 295 294 293 293 291 289 289 289 291 293 295 298 304 305 303 298 287 281 272 271 277 219 225 206 220 301 320 336 338 333 328 332 349 345 339 336 331 326 326 326
307 306 301 296 292 294 305 310 312 317 323 327 330 330 330 330 323 299 302 319 322 314 325 329 328 329 323 308 301 303 306 304 303 303 301 301 301 300 301 299 299 302 299 299 301 301 299 298 296 294 293 293 292 290 292 292 293 293 294 302 310 317 318 302 268 260 241 252 263 212 224 239 257 291 322 341 341 338 334 345 347 338 333 327 324 319 317 319
309 306 300 295 292 297 305 308 310 315 320 323 325 326 327 329 317 303 314 313 302 305 315 318 319 323 321 313 307 306 306 305 306 306 305 307 307 305 304 302 302 300 294 300 305 303 303 303 300 297 297 298 295 296 297 294 294 293 295 300 298 316 347 302 273 294 274 268 268 240 251 278 274 297 333 332 333 335 340 345 330 324 331 325 321 318 314 313
311 306 301 295 294 300 304 306 309 314 317 318 319 321 318 310 301 308 312 307 301 305 311 314 315 316 315 313 311 309 310 311 312 314 314 313 312 310 308 306 305 302 300 304 306 302 298 299 301 302 303 302 301 301 299 295 295 293 292 290 278 255 250 267 270 278 294 306 291 256 255 266 260 309 327 329 337 165 335 339 317 322 334 326 318 315 311 312
311 307 305 301 298 302 303 303 308 311 312 312 313 314 309 301 303 309 310 308 308 309 312 315 316 315 315 314 312 313 317 318 317 318 317 316 315 312 311 311 310 310 310 307 304 300 288 284 295 302 301 302 302 300 300 299 296 293 291 284 274 264 252 261 273 277 295 313 298 258 250 262 282 308 324 342 37 332 332 334 311 319 326 319 311 312 313 317
313 311 310 308 304 304 302 303 307 308 308 310 310 310 308 305 306 309 310 309 310 313 315 318 318 317 317 315 313 316 317 318 317 318 319 319 316 313 314 317 315 315 313 305 301 299 284 279 292 299 300 300 300 300 301 299 291 286 289 285 281 279 272 268 277 287 300 303 287 264 262 281 299 315 326 261 334 335 335 330 316 317 318 313 311 316 320 320
315 316 316 314 310 306 304 305 306 306 308 309 311 312 311 311 311 312 312 310 311 313 315 318 318 315 312 308 309 314 317 318 318 319 321 320 316 314 316 318 315 313 311 306 300 294 288 290 297 301 301 301 303 304 302 299 292 285 285 287 288 288 280 264 272 316 337 276 274 262 268 287 298 310 299 261 306 330 327 317 321 319 316 314 315 319 322 323
316 319 319 316 313 310 308 308 308 309 310 312 315 314 310 311 313 313 312 311 310 311 312 313 312 308 306 305 309 313 314 316 318 319 321 320 314 314 317 315 313 313 313 311 303 298 298 300 302 303 303 305 307 306 304 304 300 291 287 289 289 285 275 262 261 316 320 285 284 266 268 286 292 298 290 273 312 324 316 316 322 319 317 318 317 319 322 326
317 319 320 318 316 314 314 314 314 315 316 317 320 316 310 310 312 313 312 311 310 311 310 309 305 303 302 304 308 310 312 315 318 319 321 317 312 314 315 313 316 318 317 314 307 302 302 298 296 300 304 307 307 307 307 306 304 299 294 292 290 282 276 271 251 238 257 277 291 285 276 293 298 296 280 298 317 317 312 321 322 319 320 321 320 322 325 328
318 319 320 319 319 319 319 320 321 322 321 321 320 315 310 312 314 316 314 312 312 312 309 307 304 300 300 304 306 308 312 315 317 318 316 311 313 316 316 314 317 316 313 311 308 304 300 289 284 296 303 306 308 309 307 303 300 297 294 295 294 287 282 280 267 255 253 243 264 295 284 280 289 292 294 307 315 310 316 322 320 319 321 320 322 325 326 327
318 319 321 322 322 320 320 323 325 324 324 323 320 316 315 314 318 319 315 313 313 311 308 307 304 301 302 305 306 309 313 314 317 317 311 310 316 317 312 311 313 312 311 310 308 305 300 288 285 293 300 305 308 307 304 301 299 297 298 301 299 293 286 282 277 260 244 231 247 270 283 284 289 296 303 309 311 314 319 319 316 317 319 319 323 325 325 327
318 321 324 324 322 318 319 324 325 323 324 323 319 318 317 316 318 318 315 314 313 312 311 309 307 307 304 305 309 312 313 313 315 314 308 310 315 311 309 310 311 311 311 311 309 306 302 293 289 294 301 308 308 307 305 304 304 305 306 306 306 301 288 270 265 272 254 241 257 262 271 288 294 304 311 310 314 317 317 313 312 316 318 320 323 324 325 327
320 324 326 324 320 319 321 323 323 321 321 321 319 318 318 317 317 317 315 315 314 314 315 313 311 310 308 309 311 311 313 314 313 310 309 311 312 311 311 311 312 312 312 312 310 309 307 299 295 299 306 309 308 309 311 309 311 313 309 307 305 303 297 285 274 279 275 257 261 268 266 279 293 310 314 313 315 313 310 310 314 317 320 324 325 326 327 327
323 324 324 323 322 322 324 325 327 326 325 324 324 321 319 318 317 316 315 314 314 315 315 314 313 311 309 310 309 309 313 312 306 307 310 311 312 313 311 311 311 311 312 311 309 307 305 298 298 306 315 319 317 319 318 312 311 309 306 307 306 304 302 295 283 280 275 264 260 254 258 273 291 308 313 316 313 308 309 314 318 322 325 326 326 327 328 328
324 324 326 328 327 327 330 333 334 334 332 331 330 328 324 321 318 317 316 316 316 316 317 317 316 313 310 308 308 309 310 308 305 307 309 310 310 311 311 311 310 310 310 309 307 306 300 294 296 298 297 298 301 304 307 308 306 304 304 305 306 304 300 295 289 276 266 269 255 240 267 287 300 314 321 321 313 311 315 318 320 326 328 328 327 327 327 328
326 328 332 335 335 336 339 338 336 335 334 333 334 333 328 324 322 321 321 321 319 319 319 319 317 313 311 311 310 310 311 310 307 305 307 309 310 311 311 310 310 311 310 308 308 306 298 297 301 294 281 284 296 303 306 304 301 301 304 305 304 302 299 296 285 268 271 280 269 265 283 298 310 325 330 322 314 314 318 322 326 331 331 330 329 327 327 328
331 332 335 339 340 336 334 334 334 333 332 331 333 331 328 326 325 325 325 323 322 321 320 320 317 314 315 314 312 313 314 312 307 307 310 312 312 312 311 312 312 311 310 310 309 306 301 302 304 300 296 299 306 309 307 303 301 302 304 308 308 303 298 293 281 279 289 286 277 291 304 304 314 329 330 319 317 318 321 326 330 332 332 330 328 327 327 326
334 336 338 340 338 332 331 331 331 331 329 329 330 329 328 326 325 325 324 321 321 320 319 319 318 317 318 316 315 315 315 312 310 312 314 314 314 314 313 314 314 312 313 312 309 308 305 303 305 305 305 307 310 311 310 306 306 308 313 316 313 306 299 293 289 299 301 280 286 311 316 308 318 331 325 317 320 322 324 328 329 330 331 329 327 326 325 324
335 337 338 337 334 332 330 329 329 329 327 327 328 327 327 325 322 321 320 318 320 320 318 320 319 318 318 317 315 315 313 311 313 315 315 315 316 316 315 315 314 312 313 311 310 311 307 302 306 308 307 311 315 316 315 313 313 317 320 321 316 308 307 302 304 319 314 300 308 320 316 314 326 327 319 321 325 324 324 326 327 329 330 327 326 324 323 323
332 333 333 332 333 331 328 327 327 327 327 327 327 327 325 322 320 320 319 320 322 322 320 320 319 318 318 316 315 314 312 313 314 314 315 315 315 316 315 313 312 311 311 311 311 313 307 303 309 310 307 313 322 323 320 319 318 318 317 312 311 312 315 317 320 327 325 320 322 321 314 319 326 323 321 326 326 324 324 325 327 329 328 326 325 323 323 323
327 328 327 329 332 330 327 327 327 327 327 327 326 325 323 321 320 320 321 322 322 322 320 319 320 319 318 317 315 315 314 314 314 313 314 313 313 314 312 310 311 311 312 315 315 315 313 308 311 312 306 310 323 326 322 320 316 312 303 306 319 322 324 327 330 332 331 327 325 322 317 320 323 323 324 326 324 323 324 324 327 329 328 326 324 324 324 323
324 324 325 328 332 330 327 327 327 328 328 326 325 324 322 323 323 322 323 323 322 322 320 320 320 319 319 319 317 318 316 315 315 314 314 314 313 314 313 311 313 313 315 320 318 318 319 312 312 312 302 306 320 323 322 321 315 298 296 312 316 323 327 327 326 327 330 330 326 321 318 318 321 323 324 324 323 323 323 325 328 328 327 325 324 324 324 324
Height
3164 3164 3164 3164 3164 3164 3164 3164 3164 3164 3163 3163 3162 3162 3161 3161 3161 3160 3160 3160 3159 3159 3159 3159 3159 3159 3159 3159 3159 3160 3160 3160 3161 3161 3160 3160 3161 3161 3161 3161 3161 3161 3161 3161 3161 3161 3161 3161 3162 3162 3162 3162 3162 3162 3163 3163 3163 3164 3164 3163 3163 3163 3163 3163 3162 3162 3162 3162 3162 3161 3161 3161 3161 3160 3160 3159 3159 3158 3158 3157 3157 3156 3155 3155 3154 3153 3153 3152
3164 3164 3165 3165 3165 3165 3164 3164 3164 3163 3163 3162 3162 3161 3161 3161 3160 3160 3160 3160 3159 3159 3159 3159 3159 3160 3160 3160 3160 3160 3160 3161 3161 3161 3161 3161 3161 3161 3161 3161 3161 3161 3161 3161 3161 3161 3161 3161 3162 3162 3162 3162 3162 3162 3162 3163 3163 3163 3163 3163 3163 3162 3162 3162 3162 3161 3161 3161 3160 3160 3160 3160 3159 3159 3158 3158 3157 3156 3156 3155 3155 3154 3154 3153 3152 3152 3151 3150
3164 3164 3165 3165 3165 3165 3165 3164 3164 3163 3163 3162 3162 3161 3161 3160 3160 3160 3159 3159 3159 3159 3159 3159 3160 3160 3160 3160 3160 3160 3160 3161 3161 3161 3161 3161 3161 3161 3161 3161 3161 3161 3161 3161 3161 3161 3161 3161 3161 3161 3161 3161 3162 3162 3162 3162 3162 3163 3163 3162 3162 3161 3161 3161 3161 3161 3160 3160 3159 3159 3159 3158 3158 3157 3156 3156 3155 3154 3154 3154 3153 3152 3152 3151 3150 3150 3149 3148
3164 3164 3165 3165 3165 3165 3165 3165 3164 3164 3163 3162 3161 3161 3160 3160 3160 3159 3159 3159 3160 3160 3160 3160 3160 3160 3160 3160 3160 3160 3161 3161 3162 3162 3161 3161 3161 3161 3161 3161 3161 3161 3161 3161 3161 3161 3161 3161 3161 3161 3161 3161 3161 3161 3162 3162 3162 3162 3162 3161 3161 3161 3160 3160 3160 3160 3159 3159 3159 3158 3157 3157 3156 3155 3155 3154 3153 3153 3152 3151 3150 3150 3149 3149 3148 3147 3147 3146
3164 3164 3165 3165 3165 3165 3165 3165 3164 3164 3163 3162 3161 3161 3160 3160 3159 3159 3159 3160 3160 3160 3160 3160 3160 3161 3161 3161 3161 3160 3161 3161 3162 3162 3162 3161 3161 3161 3161 3161 3161 3161 3161 3161 3161 3161 3161 3161 3161 3161 3161 3161 3161 3161 3161 3161 3161 3161 3161 3161 3160 3160 3160 3159 3159 3159 3158 3158 3158 3157 3156 3155 3154 3153 3152 3151 3151 3151 3150 3149 3148 3147 3147 3146 3146 3145 3145 3144
3163 3164 3164 3165 3165 3165 3165 3165 3164 3164 3163 3162 3161 3161 3160 3160 3160 3159 3160 3160 3160 3160 3160 3160 3161 3161 3161 3161 3161 3161 3161 3161 3162 3162 3162 3162 3162 3162 3161 3161 3161 3161 3161 3160 3160 3161 3161 3161 3161 3160 3160 3160 3160 3160 3161 3161 3161 3161 3160 3160 3160 3160 3159 3159 3158 3158 3157 3157 3156 3156 3155 3154 3152 3151 3150 3149 3149 3148 3147 3147 3146 3145 3144 3144 3143 3143 3143 3142
3163 3164 3164 3165 3165 3165 3165 3165 3164 3164 3163 3162 3161 3160 3160 3160 3160 3160 3160 3160 3160 3160 3160 3161 3161 3161 3161 3161 3161 3161 3161 3161 3161 3161 3161 3161 3161 3161 3161 3161 3161 3161 3161 3160 3161 3161 3161 3161 3160 3160 3160 3160 3160 3160 3160 3160 3160 3160 3160 3159 3159 3159 3158 3158 3157 3157 3156 3155 3155 3154 3153 3152 3151 3149 3148 3148 3147 3145 3145 3144 3143 3142 3142 3141 3141 3141 3140 3140
3162 3163 3164 3165 3165 3165 3165 3164 3164 3163 3162 3162 3161 3160 3160 3160 3160 3160 3160 3160 3160 3161 3161 3161 3161 3161 3161 3161 3161 3161 3161 3161 3161 3161 3161 3161 3161 3161 3161 3161 3161 3161 3160 3160 3161 3161 3160 3160 3160 3159 3159 3159 3159 3159 3160 3160 3159 3159 3159 3159 3158 3158 3157 3157 3156 3155 3154 3153 3153 3152 3151 3150 3148 3147 3147 3146 3145 3143 3142 3142 3141 3140 3139 3139 3139 3139 3138 3137
3162 3163 3164 3164 3165 3165 3164 3164 3164 3163 3162 3161 3161 3160 3160 3160 3160 3160 3160 3161 3161 3161 3161 3161 3161 3161 3161 3161 3161 3161 3161 3161 3161 3161 3161 3161 3161 3161 3161 3161 3160 3160 3160 3160 3160 3160 3160 3160 3160 3159 3159 3159 3159 3159 3159 3159 3159 3159 3158 3158 3157 3157 3156 3156 3155 3154 3153 3152 3150 3149 3148 3147 3146 3145 3145 3144 3142 3141 3140 3139 3138 3138 3137 3137 3137 3136 3136 3135
3162 3163 3164 3165 3165 3164 3164 3164 3163 3163 3162 3161 3161 3160 3160 3160 3160 3160 3160 3161 3160 3161 3161 3161 3161 3161 3161 3161 3160 3160 3160 3161 3161 3161 3161 3161 3161 3161 3160 3160 3160 3160 3160 3160 3160 3160 3160 3159 3159 3158 3158 3158 3158 3158 3158 3158 3158 3158 3158 3157 3157 3156 3155 3154 3154 3153 3151 3150 3148 3147 3145 3144 3143 3142 3142 3142 3140 3139 3138 3137 3136 3135 3135 3135 3134 3134 3133 3133
3162 3163 3164 3165 3164 3164 3164 3164 3163 3163 3162 3161 3161 3160 3160 3160 3160 3160 3160 3160 3160 3161 3161 3161 3161 3161 3160 3160 3160 3160 3160 3161 3161 3161 3161 3160 3161 3160 3160 3160 3160 3160 3160 3160 3160 3159 3159 3159 3158 3158 3158 3157 3157 3157 3157 3157 3157 3157 3157 3157 3156 3155 3154 3153 3152 3151 3150 3149 3147 3146 3144 3141 3141 3140 3140 3139 3137 3136 3135 3135 3134 3133 3133 3132 3132 3131 3131 3131
3163 3164 3164 3164 3164 3164 3164 3164 3163 3162 3162 3161 3161 3160 3160 3160 3160 3160 3160 3160 3160 3161 3161 3161 3161 3160 3160 3160 3160 3160 3160 3160 3160 3160 3160 3160 3160 3160 3160 3160 3160 3159 3159 3159 3159 3159 3159 3158 3158 3157 3157 3157 3157 3157 3157 3157 3157 3156 3156 3156 3155 3154 3153 3152 3151 3150 3149 3148 3146 3144 3141 3138 3140 3139 3137 3136 3135 3134 3133 3132 3132 3131 3130 3130 3129 3129 3129 3129
3164 3164 3164 3164 3164 3164 3164 3163 3163 3162 3162 3161 3161 3161 3161 3160 3160 3160 3160 3160 3160 3161 3161 3160 3160 3160 3160 3160 3160 3160 3160 3160 3160 3160 3160 3160 3160 3160 3160 3159 3159 3159 3159 3159 3158 3158 3158 3157 3157 3156 3156 3156 3156 3156 3156 3156 3155 3155 3155 3154 3153 3152 3152 3151 3150 3148 3147 3146 3144 3144 3139 3135 3138 3137 3134 3134 3132 3131 3131 3130 3129 3128 3128 3127 3126 3126 3126 3126
3164 3164 3164 3164 3164 3164 3163 3163 3163 3162 3162 3162 3161 3161 3161 3160 3160 3160 3160 3160 3160 3160 3160 3160 3159 3159 3159 3159 3160 3160 3160 3160 3159 3159 3160 3160 3160 3160 3160 3159 3159 3159 3159 3158 3158 3157 3157 3156 3156 3155 3155 3155 3155 3155 3155 3155 3154 3154 3153 3152 3152 3150 3150 3149 3148 3147 3146 3144 3143 3143 3138 3133 3136 3135 3132 3131 3130 3128 3128 3127 3126 3126 3125 3124 3123 3123 3123 3124
3164 3164 3164 3164 3164 3164 3163 3163 3162 3162 3162 3161 3161 3161 3160 3160 3160 3160 3160 3160 3160 3160 3159 3159 3158 3158 3159 3159 3160 3159 3159 3159 3159 3159 3160 3160 3160 3160 3159 3159 3159 3158 3158 3158 3157 3156 3156 3155 3155 3154 3154 3154 3155 3154 3154 3153 3153 3153 3152 3151 3150 3149 3148 3147 3146 3145 3144 3143 3141 3140 3136 3132 3133 3133 3131 3129 3127 3125 3125 3124 3124 3123 3122 3121 3121 3121 3121 3121
3164 3164 3164 3164 3164 3163 3163 3162 3162 3162 3161 3161 3161 3161 3160 3160 3160 3160 3159 3159 3159 3158 3158 3158 3158 3159 3159 3159 3159 3159 3159 3159 3159 3159 3159 3159 3159 3159 3159 3158 3158 3158 3158 3157 3156 3156 3155 3155 3154 3154 3154 3154 3154 3153 3153 3152 3152 3151 3150 3149 3148 3147 3146 3145 3144 3142 3141 3140 3139 3137 3133 3130 3130 3130 3129 3127 3124 3122 3121 3122 3121 3120 3119 3119 3118 3118 3118 3118
3164 3164 3164 3163 3163 3163 3162 3162 3162 3161 3161 3161 3160 3160 3160 3159 3159 3159 3159 3159 3158 3158 3158 3158 3158 3159 3159 3159 3159 3159 3159 3159 3159 3159 3159 3159 3159 3159 3159 3158 3158 3157 3157 3156 3155 3155 3155 3154 3154 3153 3153 3153 3152 3152 3152 3151 3150 3150 3149 3148 3147 3146 3144 3143 3142 3140 3139 3137 3136 3133 3129 3127 3127 3127 3126 3124 3122 3119 3118 3119 3118 3117 3116 3116 3115 3115 3115 3115
3164 3164 3163 3163 3163 3162 3162 3162 3162 3161 3161 3161 3160 3160 3159 3159 3159 3158 3158 3158 3158 3158 3158 3158 3158 3158 3159 3159 3159 3159 3159 3159 3159 3159 3159 3158 3158 3158 3158 3158 3157 3157 3156 3155 3155 3154 3154 3153 3153 3152 3152 3152 3151 3151 3150 3150 3149 3149 3148 3147 3145 3144 3143 3142 3140 3138 3137 3135 3133 3129 3125 3123 3123 3123 3123 3121 3118 3115 3115 3116 3115 3114 3113 3112 3112 3112 3113 3112
3164 3164 3164 3163 3163 3162 3162 3162 3162 3161 3161 3161 3160 3159 3159 3159 3158 3158 3158 3158 3158 3158 3158 3158 3158 3158 3158 3158 3158 3158 3158 3158 3158 3158 3158 3158 3158 3158 3158 3157 3157 3156 3155 3155 3154 3153 3153 3153 3152 3152 3151 3151 3150 3150 3149 3148 3148 3147 3147 3145 3144 3143 3141 3140 3139 3136 3134 3132 3130 3127 3123 3120 3119 3119 3119 3117 3114 3112 3111 3112 3112 3111 3110 3110 3110 3110 3110 3110
3165 3164 3164 3163 3163 3163 3162 3162 3162 3162 3161 3160 3160 3159 3159 3159 3158 3158 3158 3158 3158 3158 3158 3158 3158 3158 3158 3158 3158 3158 3158 3158 3158 3158 3158 3158 3158 3158 3157 3157 3156 3155 3155 3154 3153 3153 3152 3152 3151 3151 3150 3150 3149 3149 3148 3147 3147 3146 3145 3144 3142 3140 3139 3139 3136 3134 3132 3128 3126 3125 3120 3118 3116 3115 3116 3113 3110 3109 3109 3109 3108 3108 3107 3107 3107 3107 3107 3107
3165 3164 3164 3164 3163 3163 3163 3163 3162 3162 3161 3160 3160 3159 3159 3159 3158 3158 3158 3158 3158 3157 3157 3157 3157 3157 3158 3158 3158 3157 3157 3157 3157 3157 3157 3157 3157 3157 3157 3156 3155 3155 3154 3153 3153 3152 3151 3151 3150 3150 3149 3148 3148 3147 3147 3146 3145 3144 3143 3142 3141 3139 3137 3136 3134 3132 3130 3125 3123 3121 3116 3115 3115 3112 3111 3109 3108 3107 3107 3106 3105 3105 3105 3105 3105 3105 3105 3104
3165 3164 3164 3164 3163 3163 3163 3163 3162 3162 3161 3161 3160 3160 3159 3159 3158 3158 3158 3157 3157 3157 3157 3157 3157 3157 3157 3157 3157 3157 3157 3157 3157 3157 3157 3157 3157 3156 3156 3155 3155 3154 3153 3153 3152 3151 3150 3149 3149 3148 3148 3147 3147 3146 3145 3145 3144 3143 3142 3140 3139 3137 3134 3134 3132 3130 3128 3123 3119 3117 3112 3111 3113 3110 3108 3107 3106 3106 3104 3104 3103 3102 3103 3103 3103 3103 3102 3101
3165 3165 3164 3164 3164 3163 3163 3163 3162 3162 3162 3161 3160 3160 3160 3159 3159 3158 3158 3157 3157 3156 3156 3156 3156 3156 3156 3156 3156 3156 3156 3156 3156 3156 3156 3156 3156 3155 3155 3154 3154 3153 3152 3152 3151 3150 3149 3148 3148 3147 3147 3146 3145 3145 3144 3143 3142 3141 3140 3138 3137 3136 3133 3131 3130 3128 3127 3122 3117 3114 3107 3105 3109 3108 3106 3105 3105 3104 3103 3101 3101 3100 3101 3101 3101 3101 3099 3099
3165 3165 3164 3164 3164 3163 3163 3163 3162 3162 3162 3161 3160 3160 3159 3159 3158 3158 3157 3157 3156 3156 3156 3155 3156 3156 3156 3155 3155 3155 3155 3155 3155 3155 3155 3155 3155 3154 3154 3153 3153 3152 3152 3151 3150 3149 3148 3147 3147 3146 3145 3145 3144 3143 3142 3141 3141 3139 3138 3137 3135 3134 3132 3129 3127 3125 3124 3122 3118 3114 3105 3100 3105 3107 3104 3104 3103 3102 3101 3100 3099 3099 3099 3099 3099 3098 3097 3096
3166 3165 3165 3164 3164 3164 3163 3163 3162 3162 3161 3161 3160 3160 3159 3159 3158 3157 3156 3156 3155 3155 3155 3155 3155 3155 3155 3155 3154 3155 3154 3154 3154 3154 3154 3154 3153 3153 3152 3152 3151 3151 3150 3149 3149 3148 3147 3146 3145 3145 3144 3143 3142 3141 3141 3140 3138 3137 3136 3135 3133 3132 3130 3128 3125 3122 3120 3118 3117 3117 3109 3098 3098 3105 3103 3102 3102 3100 3098 3098 3098 3098 3097 3097 3097 3096 3095 3094
3166 3165 3165 3164 3164 3164 3163 3163 3162 3162 3161 3161 3160 3159 3159 3158 3158 3157 3156 3155 3154 3154 3154 3154 3154 3154 3154 3154 3154 3154 3154 3153 3153 3153 3153 3153 3152 3152 3151 3151 3150 3149 3149 3148 3147 3146 3145 3145 3144 3143 3142 3142 3141 3140 3139 3138 3136 3135 3134 3133 3131 3129 3128 3126 3124 3121 3118 3115 3114 3117 3115 3101 3094 3101 3102 3099 3100 3097 3096 3096 3096 3096 3096 3095 3095 3094 3093 3091
3166 3165 3165 3164 3164 3164 3163 3163 3162 3162 3161 3160 3160 3159 3158 3158 3157 3157 3156 3154 3153 3154 3154 3153 3153 3153 3153 3153 3153 3153 3153 3152 3152 3152 3152 3151 3151 3151 3150 3149 3149 3148 3147 3146 3145 3144 3144 3143 3142 3142 3141 3140 3139 3138 3137 3136 3134 3133 3132 3131 3129 3127 3126 3123 3122 3120 3116 3113 3111 3112 3113 3104 3095 3098 3099 3097 3098 3096 3095 3096 3095 3095 3094 3093 3093 3092 3090 3089
3165 3165 3165 3164 3164 3163 3163 3163 3162 3162 3161 3160 3159 3159 3158 3158 3157 3157 3156 3155 3153 3153 3153 3153 3153 3153 3153 3153 3153 3152 3152 3152 3151 3151 3151 3150 3150 3149 3148 3148 3147 3146 3146 3145 3143 3142 3142 3141 3141 3140 3139 3138 3137 3136 3135 3134 3132 3131 3130 3129 3127 3125 3124 3121 3119 3118 3114 3110 3108 3107 3108 3105 3097 3097 3098 3096 3096 3096 3095 3095 3094 3093 3093 3092 3091 3089 3088 3086
3165 3165 3165 3164 3164 3163 3163 3163 3162 3162 3161 3160 3159 3159 3158 3158 3157 3157 3156 3155 3154 3153 3153 3153 3153 3152 3152 3152 3152 3152 3151 3151 3150 3150 3149 3149 3148 3148 3147 3146 3146 3144 3144 3143 3141 3141 3140 3139 3139 3137 3136 3136 3135 3134 3133 3132 3131 3129 3128 3126 3125 3123 3121 3119 3117 3114 3112 3109 3105 3103 3105 3104 3097 3095 3098 3097 3095 3095 3094 3093 3093 3092 3091 3090 3089 3087 3085 3084
3165 3165 3164 3164 3164 3163 3163 3162 3162 3161 3161 3160 3159 3158 3158 3157 3157 3157 3156 3154 3154 3153 3153 3153 3152 3152 3152 3151 3151 3151 3150 3150 3149 3149 3148 3147 3147 3146 3146 3145 3144 3143 3142 3141 3140 3139 3138 3138 3137 3135 3135 3134 3133 3132 3131 3130 3129 3128 3126 3125 3123 3121 3118 3116 3113 3112 3111 3106 3102 3101 3103 3104 3099 3094 3096 3096 3095 3093 3092 3091 3091 3091 3090 3089 3087 3085 3083 3081
3165 3165 3164 3164 3163 3163 3163 3162 3162 3161 3160 3160 3159 3158 3158 3157 3157 3156 3155 3154 3153 3153 3153 3152 3152 3151 3151 3150 3150 3149 3149 3148 3148 3147 3147 3146 3146 3145 3144 3143 3142 3141 3140 3139 3138 3137 3137 3136 3135 3133 3133 3132 3131 3130 3129 3128 3127 3126 3125 3123 3121 3119 3116 3113 3110 3110 3109 3104 3100 3101 3102 3104 3101 3095 3094 3096 3094 3093 3091 3090 3090 3090 3089 3088 3087 3085 3082 3080
3165 3164 3164 3163 3163 3163 3162 3162 3161 3161 3160 3159 3158 3158 3157 3156 3156 3155 3155 3154 3153 3152 3152 3152 3151 3150 3150 3149 3148 3148 3148 3147 3146 3146 3145 3145 3144 3144 3143 3142 3141 3140 3138 3137 3136 3135 3134 3134 3133 3131 3131 3130 3129 3128 3128 3126 3126 3125 3124 3123 3122 3119 3116 3112 3109 3109 3106 3102 3100 3101 3102 3102 3098 3095 3094 3094 3093 3092 3090 3090 3089 3089 3088 3086 3085 3083 3080 3077
3164 3163 3163 3163 3162 3162 3161 3161 3161 3160 3159 3158 3158 3157 3157 3156 3155 3155 3155 3154 3153 3152 3152 3151 3150 3150 3149 3148 3147 3147 3146 3145 3145 3145 3144 3144 3143 3142 3142 3141 3140 3139 3137 3135 3134 3132 3132 3131 3131 3130 3129 3129 3128 3127 3126 3125 3124 3123 3122 3123 3122 3122 3120 3113 3109 3107 3102 3100 3100 3101 3102 3099 3094 3093 3093 3092 3092 3091 3090 3089 3088 3087 3085 3083 3081 3079 3076 3073
3163 3163 3162 3162 3161 3161 3161 3160 3160 3159 3158 3158 3157 3157 3156 3156 3155 3154 3154 3154 3153 3152 3151 3150 3149 3148 3147 3147 3146 3145 3145 3144 3144 3144 3143 3142 3142 3141 3140 3139 3138 3138 3136 3135 3133 3131 3130 3129 3129 3129 3128 3127 3127 3126 3125 3124 3122 3121 3121 3121 3120 3121 3121 3115 3109 3105 3100 3099 3100 3100 3100 3095 3091 3092 3092 3090 3090 3089 3089 3088 3086 3084 3082 3080 3077 3075 3072 3070
3163 3162 3161 3161 3160 3160 3160 3159 3159 3158 3157 3157 3156 3156 3155 3155 3154 3154 3153 3153 3152 3151 3150 3149 3148 3147 3146 3146 3145 3144 3144 3143 3143 3142 3142 3141 3140 3139 3139 3138 3137 3136 3135 3134 3133 3131 3129 3128 3127 3128 3127 3126 3125 3125 3124 3123 3121 3119 3119 3119 3118 3118 3118 3115 3110 3106 3104 3102 3098 3096 3094 3090 3089 3090 3090 3089 3088 3088 3087 3085 3084 3081 3078 3076 3073 3071 3070 3068
3162 3161 3161 3160 3160 3159 3159 3158 3158 3157 3156 3156 3155 3155 3154 3154 3154 3153 3152 3152 3151 3150 3149 3148 3147 3146 3145 3145 3144 3144 3143 3143 3142 3141 3140 3140 3139 3138 3137 3137 3136 3135 3134 3133 3132 3131 3128 3126 3126 3126 3125 3125 3124 3123 3122 3122 3120 3118 3117 3117 3117 3116 3116 3114 3110 3107 3108 3105 3096 3091 3089 3087 3087 3088 3088 3088 3087 3086 3085 3082 3081 3078 3075 3072 3070 3068 3067 3064
3161 3161 3160 3160 3159 3159 3158 3157 3157 3156 3155 3155 3154 3154 3153 3153 3153 3152 3151 3151 3150 3149 3148 3147 3146 3145 3144 3144 3144 3143 3143 3142 3141 3140 3139 3138 3137 3136 3136 3136 3135 3134 3133 3132 3131 3130 3128 3125 3124 3124 3123 3122 3122 3121 3120 3120 3119 3117 3116 3116 3115 3114 3113 3113 3111 3107 3108 3104 3093 3087 3086 3085 3086 3087 3086 3085 3085 3083 3082 3080 3077 3073 3071 3068 3067 3065 3063 3060
3161 3160 3160 3159 3158 3158 3157 3156 3156 3155 3154 3154 3153 3153 3152 3152 3152 3151 3150 3150 3149 3148 3147 3146 3145 3144 3144 3143 3143 3142 3142 3141 3140 3139 3138 3137 3136 3135 3135 3134 3133 3133 3132 3131 3130 3129 3127 3123 3121 3122 3122 3121 3120 3119 3118 3117 3117 3116 3115 3115 3114 3113 3111 3112 3111 3109 3107 3104 3092 3083 3083 3084 3084 3083 3082 3082 3081 3080 3078 3075 3071 3068 3067 3065 3063 3061 3059 3056
3160 3159 3159 3158 3157 3157 3156 3155 3155 3154 3153 3153 3152 3152 3151 3151 3151 3150 3149 3148 3148 3147 3146 3145 3145 3144 3143 3143 3142 3141 3140 3140 3139 3138 3137 3136 3135 3134 3133 3132 3132 3131 3131 3130 3129 3127 3126 3124 3120 3119 3120 3119 3118 3117 3116 3115 3115 3114 3113 3113 3113 3112 3111 3110 3110 3109 3107 3104 3094 3083 3079 3081 3080 3078 3079 3079 3078 3076 3073 3069 3067 3065 3063 3062 3059 3057 3054 3051
3160 3159 3158 3157 3157 3156 3155 3154 3154 3153 3153 3152 3152 3151 3150 3150 3149 3149 3148 3147 3146 3146 3145 3144 3144 3143 3142 3142 3141 3140 3139 3138 3137 3137 3136 3135 3134 3133 3132 3131 3131 3130 3129 3128 3127 3126 3125 3123 3119 3117 3118 3117 3116 3116 3114 3113 3113 3112 3112 3112 3111 3110 3110 3108 3106 3105 3105 3103 3098 3088 3078 3075 3077 3077 3077 3077 3075 3073 3070 3065 3062 3062 3061 3058 3056 3053 3049 3046
3159 3158 3157 3157 3156 3155 3154 3154 3153 3152 3152 3151 3151 3150 3150 3149 3148 3148 3147 3146 3145 3145 3144 3143 3143 3142 3141 3141 3140 3139 3138 3137 3136 3135 3134 3133 3133 3132 3131 3130 3129 3128 3127 3126 3126 3125 3123 3121 3118 3115 3115 3115 3114 3113 3112 3111 3111 3110 3110 3109 3109 3108 3108 3107 3102 3100 3101 3100 3097 3090 3077 3068 3072 3076 3075 3075 3073 3070 3067 3062 3060 3060 3058 3055 3052 3050 3046 3042
3158 3158 3157 3156 3155 3154 3154 3153 3152 3152 3151 3151 3150 3149 3149 3148 3147 3147 3146 3145 3144 3144 3143 3142 3142 3141 3140 3139 3139 3138 3137 3135 3135 3134 3133 3132 3132 3131 3130 3129 3128 3127 3126 3124 3124 3123 3121 3119 3116 3113 3113 3113 3112 3110 3109 3109 3109 3109 3108 3107 3107 3106 3105 3106 3101 3096 3097 3096 3093 3091 3079 3066 3068 3073 3073 3073 3071 3067 3064 3060 3059 3057 3055 3052 3049 3046 3043 3039
3158 3157 3156 3155 3154 3154 3153 3152 3152 3151 3150 3150 3149 3149 3148 3147 3146 3146 3145 3144 3143 3143 3142 3142 3141 3140 3139 3138 3137 3137 3135 3134 3133 3132 3132 3131 3130 3129 3128 3127 3126 3125 3124 3123 3122 3121 3120 3118 3114 3110 3109 3109 3109 3108 3108 3107 3107 3107 3106 3105 3105 3104 3102 3102 3099 3095 3094 3091 3090 3091 3079 3065 3066 3071 3071 3070 3067 3064 3061 3059 3057 3054 3051 3048 3045 3041 3038 3035
3157 3156 3155 3155 3154 3153 3152 3152 3151 3150 3150 3149 3148 3148 3147 3146 3145 3145 3144 3143 3143 3142 3141 3140 3140 3139 3138 3137 3136 3135 3134 3133 3131 3131 3130 3129 3129 3128 3127 3126 3125 3123 3123 3121 3120 3120 3119 3117 3114 3110 3107 3105 3104 3105 3106 3106 3105 3104 3103 3102 3102 3101 3099 3098 3096 3094 3090 3086 3088 3088 3072 3062 3068 3070 3068 3067 3063 3059 3058 3056 3054 3051 3047 3044 3040 3036 3034 3030
3156 3156 3155 3154 3153 3153 3152 3151 3150 3150 3149 3148 3147 3147 3146 3145 3144 3144 3143 3142 3142 3141 3140 3139 3138 3137 3136 3136 3135 3134 3133 3132 3131 3129 3129 3128 3127 3126 3125 3124 3123 3122 3121 3119 3118 3117 3116 3115 3114 3113 3111 3107 3103 3103 3103 3103 3102 3101 3100 3100 3098 3097 3096 3094 3093 3092 3087 3081 3083 3081 3067 3059 3065 3068 3065 3063 3059 3054 3053 3052 3050 3049 3045 3041 3036 3032 3029 3025
3156 3155 3154 3154 3153 3152 3151 3151 3150 3149 3148 3147 3147 3146 3145 3144 3144 3143 3142 3141 3141 3140 3139 3138 3137 3136 3135 3134 3133 3132 3131 3131 3130 3128 3127 3127 3125 3124 3123 3122 3121 3120 3119 3117 3116 3115 3113 3113 3113 3112 3110 3107 3103 3102 3102 3100 3099 3097 3097 3096 3095 3093 3092 3092 3090 3087 3084 3080 3075 3074 3069 3060 3059 3061 3060 3057 3054 3050 3048 3046 3045 3044 3040 3036 3031 3027 3023 3019
3155 3155 3154 3153 3152 3152 3151 3150 3149 3148 3147 3147 3146 3145 3144 3144 3143 3142 3141 3140 3139 3139 3138 3137 3136 3134 3134 3132 3131 3131 3130 3129 3128 3127 3126 3125 3124 3123 3121 3120 3119 3118 3116 3115 3114 3113 3111 3110 3110 3109 3106 3103 3102 3101 3100 3097 3095 3093 3093 3092 3091 3091 3088 3088 3086 3082 3082 3079 3070 3068 3070 3064 3056 3056 3056 3052 3049 3046 3044 3042 3040 3038 3035 3030 3025 3021 3017 3013
3155 3154 3153 3153 3152 3151 3150 3149 3148 3147 3147 3146 3145 3145 3144 3143 3142 3141 3140 3139 3138 3137 3136 3135 3134 3133 3132 3131 3130 3129 3128 3127 3126 3125 3124 3123 3122 3121 3119 3118 3117 3115 3114 3113 3112 3111 3110 3107 3106 3105 3102 3100 3100 3099 3096 3095 3092 3091 3090 3089 3087 3087 3085 3083 3082 3080 3080 3077 3069 3065 3066 3062 3056 3054 3052 3049 3046 3043 3040 3039 3036 3033 3030 3025 3020 3016 3012 3008
3154 3154 3153 3152 3151 3150 3149 3148 3147 3147 3146 3145 3144 3144 3143 3142 3141 3140 3139 3138 3137 3136 3135 3134 3133 3132 3131 3130 3129 3128 3127 3125 3124 3123 3122 3121 3120 3119 3117 3116 3115 3113 3112 3111 3110 3109 3108 3105 3104 3102 3098 3097 3097 3096 3093 3092 3090 3088 3088 3086 3084 3083 3082 3080 3079 3079 3077 3073 3068 3065 3061 3058 3056 3052 3048 3046 3045 3041 3038 3036 3033 3030 3026 3021 3016 3011 3007 3002
3154 3153 3152 3151 3150 3149 3148 3147 3146 3146 3145 3144 3143 3143 3142 3141 3140 3139 3138 3137 3136 3135 3134 3133 3132 3131 3130 3128 3127 3126 3125 3124 3123 3122 3120 3119 3118 3117 3115 3114 3112 3111 3110 3109 3108 3107 3106 3103 3101 3100 3095 3093 3094 3094 3091 3089 3087 3086 3085 3084 3082 3081 3080 3079 3077 3076 3073 3069 3066 3063 3058 3054 3053 3050 3046 3044 3042 3038 3034 3031 3029 3026 3021 3015 3010 3005 3000 2995
3153 3152 3151 3150 3149 3148 3147 3146 3145 3145 3144 3143 3142 3141 3140 3139 3139 3137 3137 3136 3134 3133 3132 3131 3130 3129 3128 3127 3126 3125 3124 3123 3121 3120 3119 3117 3116 3115 3114 3112 3111 3110 3108 3107 3106 3104 3103 3101 3099 3098 3094 3091 3091 3091 3090 3088 3085 3083 3082 3081 3080 3079 3078 3077 3075 3074 3071 3066 3062 3060 3055 3051 3049 3047 3043 3041 3038 3034 3030 3027 3024 3020 3015 3009 3003 2997 2993 2988
3152 3151 3150 3149 3148 3147 3146 3145 3144 3144 3143 3142 3141 3140 3139 3138 3138 3136 3135 3135 3133 3132 3131 3130 3129 3128 3127 3126 3125 3124 3122 3121 3120 3119 3117 3116 3114 3113 3112 3110 3110 3108 3107 3106 3104 3102 3101 3099 3097 3097 3093 3089 3089 3089 3087 3085 3082 3081 3080 3079 3078 3077 3075 3074 3073 3072 3070 3065 3060 3056 3052 3049 3046 3043 3039 3035 3032 3028 3024 3021 3018 3013 3008 3003 2997 2992 2987 2983